Location: LDNL
(36.4545°S, 141.6685°E)
Time: 22:13:26
(UTC+11:00)

Courier 1B Rocket - Pass Details

Date: 31 January 2023
Orbit: 920 x 1202 km, 28.2° (Epoch: 26 March)

Event Time Altitude Azimuth Distance (km) Brightness Sun altitude
Rises 11:10:06 0° 275° (W) 4,057 7.9 50.7°
Reaches altitude 10° 11:13:14 10° 282° (WNW) 3,063 7.4 51.3°
Maximum altitude 11:19:59 36° 345° (NNW) 1,691 6.8 52.6°
Drops below altitude 10° 11:26:19 10° 49° (NE) 2,875 8.2 53.8°
Sets 11:29:11 0° 57° (ENE) 3,781 8.6 54.3°
